Date,TemperatureHighF,TemperatureAvgF,TemperatureLowF,DewpointHighF,DewpointAvgF,DewpointLowF,HumidityHigh,HumidityAvg,HumidityLow,PressureMaxIn,PressureMinIn,WindSpeedMaxMPH,WindSpeedAvgMPH,GustSpeedMaxMPH,PrecipitationSumIn
2013-3-1,30.0,26.8,24.2,29.1,23.8,20.5,97,88,83,30.23,30.08,9,3,17,0.04
2013-3-2,27.4,21.6,11.6,21.1,16.3,8.8,89,80,65,30.26,30.20,15,7,19,0.00
2013-3-3,30.8,20.2,8.0,18.0,12.9,5.7,93,75,56,30.21,30.09,5,2,8,0.00
2013-3-4,34.8,30.6,24.7,30.3,25.1,15.3,92,80,66,30.11,29.89,11,7,25,0.01
2013-3-5,33.5,30.7,26.6,31.0,29.0,24.8,97,93,86,30.08,29.84,25,13,34,0.09
2013-3-6,28.7,26.2,21.2,25.4,23.0,19.0,92,87,83,30.36,30.09,21,13,30,0.00
2013-3-7,36.1,28.5,24.3,28.3,24.4,22.1,91,85,71,30.43,30.34,7,2,12,0.02
2013-3-8,43.4,34.1,23.5,34.6,29.1,21.5,93,82,68,30.44,30.22,13,5,19,0.00
2013-3-9,50.3,41.3,36.0,42.5,36.9,32.1,95,85,70,30.23,29.75,17,10,28,0.36
2013-3-10,50.5,47.2,42.5,50.0,46.1,40.8,99,96,85,29.81,29.57,19,6,27,0.74
2013-3-11,44.6,35.0,29.9,44.3,33.2,26.2,99,93,86,29.89,29.61,23,16,34,0.03
2013-3-12,36.9,30.3,25.5,32.3,26.4,20.4,94,85,75,30.13,29.90,28,15,38,0.00
2013-3-13,35.1,27.7,22.2,23.6,20.9,18.3,87,76,51,30.38,30.12,21,14,30,0.00
2013-3-14,44.3,33.2,23.0,33.1,26.9,20.6,92,78,57,30.37,30.07,15,6,25,0.00
2013-3-15,51.8,40.3,30.1,41.8,35.4,28.6,95,83,62,30.06,29.67,8,4,13,0.00
2013-3-16,40.5,34.9,30.6,39.2,32.0,27.7,98,90,74,30.11,29.65,15,5,23,0.00
2013-3-17,35.5,31.7,28.1,29.1,26.5,22.9,90,81,73,30.17,29.90,10,6,24,0.00
2013-3-18,38.7,31.6,24.9,35.4,28.2,16.8,96,87,71,29.93,29.68,30,13,48,0.05
2013-3-19,38.5,27.5,18.5,21.9,16.5,11.3,78,64,42,30.17,29.91,27,17,44,0.00
2013-3-20,28.2,22.3,14.9,21.7,11.7,7.2,81,64,46,30.21,30.11,26,19,36,0.00
2013-3-21,35.5,23.1,10.0,17.8,12.2,6.5,88,65,41,30.13,30.02,13,4,20,0.00
2013-3-22,43.5,31.6,19.0,25.9,19.4,15.6,88,63,38,30.09,30.00,5,2,13,0.00
2013-3-23,45.6,36.2,27.4,28.0,25.7,23.0,87,67,46,30.10,29.96,10,4,19,0.00
2013-3-24,32.3,30.3,28.7,31.3,29.2,27.3,97,96,87,29.99,29.65,12,4,20,0.17
2013-3-25,35.1,30.9,27.6,29.0,27.0,23.7,97,85,77,30.14,29.78,21,9,29,0.14
2013-3-26,37.9,33.4,28.3,29.7,27.5,25.2,88,79,65,30.30,30.14,16,10,24,0.00
2013-3-27,44.1,35.2,26.0,29.1,26.4,22.2,92,72,48,30.36,30.29,9,4,16,0.00
2013-3-28,50.9,38.9,25.6,32.9,29.0,22.0,88,69,46,30.37,30.26,5,2,12,0.00
2013-3-29,56.4,45.9,34.7,35.7,32.5,29.8,86,61,41,30.30,30.19,5,2,11,0.00
2013-3-30,57.3,47.1,35.3,44.0,38.4,31.2,90,72,55,30.20,29.86,19,7,28,0.00
2013-3-31,59.6,49.2,36.7,46.0,39.0,27.6,94,71,38,29.94,29.77,25,14,36,0.00